CAPE
0 0 0 0 0 0 0 0 0 0 0 0 0 0 0 0 0 0 0 0 0 0 0 0 0 0 0 0 2 10 11 4 1 1 9 0 0 0 0 0 0 0 0
0 0 0 0 0 0 0 0 0 0 0 0 0 0 0 0 0 0 0 0 0 0 0 0 0 0 0 1 4 10 15 20 15 2 1 6 0 0 0 0 0 0 0
0 0 0 0 0 0 0 0 0 0 0 0 0 0 0 0 0 0 0 1 1 2 2 3 3 5 7 8 11 11 13 16 9 2 3 8 0 0 0 0 0 0 0
0 0 0 0 0 0 0 0 0 0 0 0 0 0 0 0 0 0 2 3 2 3 6 7 8 10 8 10 9 4 5 0 0 0 0 0 0 0 0 0 0 0 0
0 0 0 0 0 0 0 0 0 0 0 0 0 0 0 0 0 2 2 2 0 1 2 2 4 3 3 3 2 0 0 0 2 3 5 2 1 0 0 0 0 0 0
0 0 0 0 0 0 0 0 0 0 0 0 0 0 0 0 1 2 1 0 0 0 0 0 0 0 0 1 4 11 5 7 16 15 13 15 4 2 0 0 0 0 0
0 0 0 0 0 0 0 0 0 0 0 0 0 0 0 0 0 1 1 0 0 0 0 0 1 0 3 4 5 12 13 14 13 21 26 17 13 11 5 0 0 0 0
0 0 0 0 0 0 0 0 0 0 0 0 0 0 0 0 0 0 1 0 0 0 0 1 3 4 2 5 7 9 9 12 14 15 28 25 18 9 15 15 0 0 0
0 0 0 0 0 0 0 0 0 0 0 0 0 0 0 0 0 1 2 2 3 1 4 6 6 5 5 13 9 13 10 7 4 21 50 69 66 56 55 15 0 1 1
0 0 0 0 0 0 0 0 0 0 0 0 0 0 0 0 0 4 4 6 5 8 9 4 5 7 11 16 13 15 14 6 2 4 9 24 21 13 41 24 7 1 0
0 0 0 0 0 0 0 0 0 0 0 0 0 0 0 0 0 4 6 6 14 13 12 12 16 15 24 20 16 12 15 14 25 10 10 10 10 12 1 0 5 0 0
0 0 0 0 0 0 0 0 0 0 0 0 0 0 0 0 1 1 8 15 13 12 14 20 14 21 17 15 7 13 19 20 21 18 11 11 21 15 1 0 0 0 0
0 0 0 0 0 0 0 0 0 0 0 0 1 1 1 2 3 3 13 18 13 26 29 24 23 12 8 4 4 6 4 14 18 31 34 29 18 0 0 0 0 0 0
0 0 0 0 0 0 0 0 0 0 0 2 3 4 3 3 2 2 15 11 25 25 33 13 8 6 6 8 3 2 6 14 14 23 10 12 0 0 0 0 0 0 0
0 0 0 0 0 0 0 0 0 0 0 0 0 2 2 3 5 13 13 12 11 22 6 0 0 1 2 2 1 2 3 8 14 16 12 2 0 0 0 0 0 0 0
0 0 0 0 0 0 0 0 0 0 0 0 0 1 1 5 8 9 12 19 24 16 0 0 1 2 3 3 3 3 2 6 16 12 7 0 0 0 0 0 0 0 0
0 0 0 0 0 0 0 0 0 0 0 0 0 0 2 3 5 10 14 16 6 2 0 0 1 2 2 2 3 4 2 6 10 10 1 0 0 0 0 0 0 0 0
0 0 0 0 0 0 0 0 0 0 0 0 0 0 1 2 9 12 8 2 0 0 0 0 0 0 1 1 2 2 1 2 9 8 5 1 0 0 0 0 0 0 0
0 0 0 0 0 0 0 0 0 0 0 0 0 0 0 2 10 2 1 0 0 0 0 0 0 0 0 0 1 2 1 1 5 5 2 1 0 0 0 0 0 0 0
0 0 0 0 0 0 0 0 0 0 0 0 0 0 0 0 0 0 0 0 0 0 0 0 0 0 0 0 0 1 1 0 2 6 3 1 1 1 0 0 0 0 0
0 0 0 0 0 0 0 0 0 0 0 0 0 0 14 0 0 0 0 0 0 0 0 0 0 0 0 0 0 0 0 1 0 0 3 2 0 0 0 0 0 0 0
0 0 0 0 0 0 0 0 0 0 0 0 0 0 6 0 0 0 0 0 0 0 0 0 0 0 0 0 0 0 0 0 1 0 2 0 0 0 0 0 0 0 0
0 0 0 0 0 0 0 0 0 0 0 0 0 0 0 0 0 0 0 0 0 0 0 0 0 0 0 0 0 0 0 0 0 0 0 0 0 0 0 0 0 0 0
0 0 0 0 0 0 0 0 0 0 0 0 0 0 0 0 0 0 0 0 0 0 0 0 0 0 0 0 0 0 0 0 0 0 0 0 0 0 0 0 0 0 0
0 0 0 0 0 0 0 0 0 0 0 0 0 0 0 0 0 0 0 0 0 0 0 0 0 0 0 0 0 0 0 0 0 0 0 0 0 0 0 0 0 0 0
0 0 0 0 0 0 0 0 0 0 0 0 0 0 0 0 0 0 0 0 0 0 0 0 0 0 0 0 0 5 3 16 1 0 0 0 0 0 0 0 0 0 0
CIN
-0 -0 -0 -0 -0 -0 -0 -0 -0 -0 -0 -0 -0 -0 -0 -0 -0 -0 -0 -0 -0 -0 -0 -0 -0 -0 -0 -0 -0 -0 -0 -0 -2 -0 -0 -0 -0 -0 -0 -0 -0 -0 -0
-0 -0 -0 -0 -0 -0 -0 -0 -0 -0 -0 -0 -0 -0 -0 -0 -0 -0 -0 -0 -0 -0 -0 -0 -0 -0 -0 -0 -0 -0 -0 -0 -0 -0 -0 -0 -0 -0 -0 -0 -0 -0 -0
-0 -0 -0 -0 -0 -0 -0 -0 -0 -0 -0 -0 -0 -0 -0 -0 -0 -0 -0 -0 -0 -0 -0 -0 -0 -0 -0 -0 -0 -0 -0 -0 -0 -1 -0 -0 -0 -0 -0 -0 -0 -0 -0
-0 -0 -0 -0 -0 -0 -0 -0 -0 -0 -0 -0 -0 -0 -0 -0 -0 -0 -0 -0 -0 -0 -0 -0 -0 -0 -0 -0 -0 -0 -0 -0 -0 -0 -0 -0 -0 -0 -0 -0 -0 -0 -0
-0 -0 -0 -0 -0 -0 -0 -0 -0 -0 -0 -0 -0 -0 -0 -0 -0 -0 -0 -0 -0 -0 -0 -0 -0 -1 -0 -0 -0 -0 -0 -0 -0 -0 -0 -1 -1 -0 -0 -0 -0 -0 -0
-0 -0 -0 -0 -0 -0 -0 -0 -0 -0 -0 -0 -0 -0 -0 -0 -0 -0 -0 -0 -0 -0 -0 -0 -0 -0 -0 -0 -0 -0 -0 -1 -0 -0 -0 -0 -0 -2 -5 -0 -0 -0 -0
-0 -0 -0 -0 -0 -0 -0 -0 -0 -0 -0 -0 -0 -0 -0 -0 -0 -0 -0 -0 -0 -0 -0 -0 -0 -0 -0 -0 -0 -0 -0 -0 -0 -0 -0 -0 -0 -0 -2 -0 -0 -0 -0
-0 -0 -0 -0 -0 -0 -0 -0 -0 -0 -0 -0 -0 -0 -0 -0 -0 -0 -0 -0 -0 -0 -0 -0 -0 -0 -0 -0 -0 -0 -0 -0 -0 -0 -0 -0 -0 -0 -0 -0 -0 -0 -0
-0 -0 -0 -0 -0 -0 -0 -0 -0 -0 -0 -0 -0 -0 -0 -0 -0 -0 -0 -0 -0 -0 -0 -0 -0 -0 -0 -0 -0 -0 -0 -0 -0 -0 -0 -0 -0 -0 -0 -1 -1 -0 -0
-0 -0 -0 -0 -0 -0 -0 -0 -0 -0 -0 -0 -0 -0 -0 -0 -0 -0 -0 -0 -0 -0 -0 -0 -0 -0 -0 -0 -0 -0 -0 -0 -0 -0 -0 -0 -0 -1 -0 -1 -0 -0 -0
-0 -0 -0 -0 -0 -0 -0 -0 -0 -0 -0 -0 -0 -0 -0 -0 -0 -0 -0 -0 -0 -0 -0 -0 -0 -0 -0 -0 -0 -0 -0 -0 -0 -0 -0 -0 -1 -2 -0 -0 -0 -0 -0
-0 -0 -0 -0 -0 -0 -0 -0 -0 -0 -0 -0 -0 -0 -0 -0 -0 -0 -0 -0 -0 -0 -0 -0 -0 -0 -0 -0 -0 -0 -0 -0 -0 -0 -0 -0 -0 -0 -0 -0 -0 -0 -0
-0 -0 -0 -0 -0 -0 -0 -0 -0 -0 -0 -0 -0 -0 -0 -0 -0 -0 -0 -0 -0 -0 -0 -0 -0 -0 -0 -0 -0 -0 -0 -0 -0 -0 -0 -0 -0 -0 -0 -0 -0 -0 -0
-0 -0 -0 -0 -0 -0 -0 -0 -0 -0 -0 -0 -0 -0 -0 -0 -0 -0 -0 -0 -0 -0 -0 -0 -0 -0 -0 -0 -0 -0 -0 -0 -0 -0 -0 -0 -0 -0 -0 -0 -0 -0 -0
-0 -0 -0 -0 -0 -0 -0 -0 -0 -0 -0 -0 -0 -0 -0 -0 -0 -0 -0 -0 -0 -0 -0 -0 -0 -0 -0 -0 -0 -0 -0 -0 -0 -0 -0 -0 -0 -0 -0 -0 -0 -0 -0
-0 -0 -0 -0 -0 -0 -0 -0 -0 -0 -0 -0 -0 -0 -0 -0 -0 -0 -0 -0 -0 -0 -0 -0 -0 -0 -0 -0 -0 -0 -0 -0 -0 -0 -0 -0 -0 -0 -0 -0 -0 -0 -0
-0 -0 -0 -0 -0 -0 -0 -0 -0 -0 -0 -0 -0 -0 -0 -0 -0 -0 -0 -0 -0 -0 -0 -0 -0 -0 -0 -0 -0 -0 -0 -0 -0 -0 -0 -0 -0 -0 -0 -0 -0 -0 -0
-0 -0 -0 -0 -0 -0 -0 -0 -0 -0 -0 -0 -0 -0 -0 -0 -0 -0 -0 -0 -0 -0 -0 -0 -0 -0 -0 -0 -0 -0 -0 -0 -0 -0 -0 -0 -0 -0 -0 -0 -0 -0 -0
-0 -0 -0 -0 -0 -0 -0 -0 -0 -0 -0 -0 -0 -0 -0 -0 -0 -0 -0 -0 -0 -0 -0 -0 -0 -0 -0 -0 -0 -0 -0 -0 -0 -0 -0 -0 -0 -0 -0 -0 -0 -0 -0
-0 -0 -0 -0 -0 -0 -0 -0 -0 -0 -0 -0 -0 -0 -0 -0 -0 -0 -0 -0 -0 -0 -0 -0 -0 -0 -0 -0 -0 -0 -0 -0 -0 -0 -0 -0 -0 -0 -0 -0 -0 -0 -0
-0 -0 -0 -0 -0 -0 -0 -0 -0 -0 -0 -0 -0 -0 -0 -0 -0 -0 -0 -0 -0 -0 -0 -0 -0 -0 -0 -0 -0 -0 -0 -0 -0 -0 -0 -0 -0 -0 -0 -0 -0 -0 -0
-0 -0 -0 -0 -0 -0 -0 -0 -0 -0 -0 -0 -0 -0 -0 -0 -0 -0 -0 -0 -0 -0 -0 -0 -0 -0 -0 -0 -0 -0 -0 -0 -0 -0 -0 -0 -0 -0 -0 -0 -0 -0 -0
-0 -0 -0 -0 -0 -0 -0 -0 -0 -0 -0 -0 -0 -0 -0 -0 -0 -0 -0 -0 -0 -0 -0 -0 -0 -0 -0 -0 -0 -0 -0 -0 -0 -0 -0 -0 -0 -0 -0 -0 -0 -0 -0
-0 -0 -0 -0 -0 -0 -0 -0 -0 -0 -0 -0 -0 -0 -0 -0 -0 -0 -0 -0 -0 -0 -0 -0 -0 -0 -0 -0 -0 -0 -0 -0 -0 -0 -0 -0 -0 -0 -0 -0 -0 -0 -0
-0 -0 -0 -0 -0 -0 -0 -0 -0 -0 -0 -0 -0 -0 -0 -0 -0 -0 -0 -0 -0 -0 -0 -0 -0 -0 -0 -0 -0 -0 -0 -0 -0 -0 -0 -0 -0 -0 -0 -0 -0 -0 -0
-0 -0 -0 -0 -0 -0 -0 -0 -0 -0 -0 -0 -0 -0 -0 -0 -0 -0 -0 -0 -0 -0 -0 -0 -0 -0 -0 -0 -0 -0 -0 -0 -0 -0 -0 -0 -0 -0 -0 -0 -0 -0 -0
Wind_Speed
9 8 8 9 8 7 9 9 9 9 11 11 12 12 13 13 13 11 11 11 13 12 13 12 13 12 8 8 8 8 9 10 14 19 11 5 5 9 8 10 11 14 12
6 7 9 9 9 10 11 11 11 12 11 11 11 10 10 12 12 12 12 12 13 14 13 13 13 10 13 11 8 11 10 11 12 21 14 12 10 9 8 10 10 10 12
7 8 10 11 10 11 11 11 11 10 10 10 10 10 11 11 11 10 12 12 13 13 13 14 15 14 13 11 12 12 11 10 12 14 19 12 7 4 7 7 9 11 9
8 9 9 9 10 9 8 8 9 10 10 10 10 10 10 11 9 11 12 12 13 13 12 12 13 13 16 16 14 15 14 14 13 14 15 15 14 6 8 6 8 9 11
9 9 8 8 8 8 9 9 8 9 9 10 9 10 10 9 9 14 14 13 13 13 11 12 11 15 20 19 14 15 16 15 13 12 13 14 12 7 8 8 11 8 11
6 7 8 8 9 9 8 8 8 8 9 9 9 10 11 8 21 24 21 14 14 14 15 14 14 15 17 24 25 27 24 16 17 14 14 16 18 14 11 11 11 8 7
5 6 7 7 7 8 7 8 9 9 9 9 10 11 12 12 24 24 25 13 15 14 16 16 15 12 17 18 23 28 24 27 28 19 20 19 20 17 16 14 15 14 13
4 5 6 6 7 8 8 9 9 9 9 9 10 11 11 10 22 25 27 14 13 15 16 17 17 18 18 21 22 22 21 18 19 16 18 22 20 20 19 16 16 18 13
5 5 6 7 8 8 10 10 9 9 9 10 10 10 12 12 23 24 23 14 14 16 15 16 18 20 25 33 24 24 26 23 22 31 32 34 33 36 31 16 12 11 10
6 7 8 8 8 8 8 8 8 8 9 8 11 11 12 12 19 23 22 12 15 14 15 17 23 25 35 36 26 23 23 24 23 23 20 23 26 22 31 21 14 14 12
6 7 7 7 6 7 7 7 9 8 8 9 11 10 10 11 13 24 26 14 14 16 15 15 13 32 37 40 38 22 23 26 27 21 18 16 16 17 13 13 15 13 12
6 4 5 5 5 6 7 7 8 9 9 9 9 9 8 10 16 20 26 26 28 18 18 15 18 39 40 39 31 35 37 34 16 15 15 15 14 11 9 9 13 14 12
4 4 3 5 6 6 7 8 6 7 7 8 8 9 10 9 9 23 24 29 28 19 14 27 38 38 37 27 34 38 29 15 16 15 14 15 12 6 3 2 5 8 9
2 4 4 5 7 5 4 5 5 6 7 8 9 10 10 11 11 11 12 14 18 16 20 16 22 26 27 25 20 20 15 14 16 15 14 13 3 1 1 0 1 2 5
3 3 5 5 6 6 6 5 6 5 8 8 8 9 11 11 11 24 23 15 16 19 21 11 12 12 14 14 15 15 16 16 15 14 14 11 4 1 1 1 3 2 3
3 4 3 3 4 5 6 7 8 11 16 17 19 16 9 19 28 30 31 31 30 30 11 11 12 13 13 15 15 15 15 18 15 15 12 6 3 2 2 2 3 2 5
1 3 3 4 4 5 5 5 9 13 18 17 19 22 22 24 27 29 30 32 25 21 8 10 11 12 13 14 14 15 17 16 19 14 10 5 2 1 2 3 3 4 5
2 3 2 2 3 4 4 5 5 6 9 10 16 20 21 24 25 25 28 22 13 10 9 10 11 11 13 14 14 15 16 16 15 13 9 5 2 1 2 3 4 4 6
2 2 2 3 3 4 5 5 5 7 7 9 9 11 11 22 22 21 22 7 10 11 10 11 11 12 12 13 13 14 15 15 15 12 9 6 3 1 1 2 3 5 6
2 3 2 3 3 3 3 5 6 6 7 8 8 9 10 11 9 9 8 8 9 10 10 12 11 11 11 12 13 13 13 14 15 13 10 7 4 2 1 2 3 5 3
2 3 3 2 3 3 3 5 5 6 7 8 9 9 22 11 9 8 8 8 9 10 11 11 11 11 11 11 11 12 12 12 12 13 11 9 6 3 1 2 3 4 5
2 2 2 2 2 4 4 4 6 7 8 9 9 10 21 7 8 9 9 10 9 10 10 10 10 10 10 10 11 11 12 12 12 12 12 10 6 4 2 2 3 4 5
3 2 2 3 2 4 5 5 6 7 8 8 9 9 8 8 8 9 11 11 10 11 10 9 10 10 10 10 9 10 10 11 10 10 11 10 7 4 1 1 3 4 4
2 2 2 3 3 3 4 6 6 8 9 9 9 9 9 9 9 11 11 11 11 11 10 10 10 14 12 11 10 10 9 10 10 8 11 9 7 5 2 1 2 4 5
2 2 2 3 4 5 6 6 7 7 8 8 9 9 9 9 10 10 11 10 11 11 12 11 11 13 15 18 17 16 15 16 13 12 5 7 7 6 2 0 3 4 5
2 3 3 3 4 5 5 6 7 8 9 9 9 9 10 10 10 11 11 11 11 11 15 11 13 18 19 16 16 17 18 17 15 7 2 4 5 4 3 1 3 3 6
Wind_Direction
33 33 36 34 26 28 29 19 11 5 3 2 357 356 354 349 349 349 347 345 342 337 339 335 328 323 314 310 299 283 276 272 271 286 282 280 246 225 213 219 224 217 211
42 41 37 31 22 27 19 11 5 2 358 355 353 351 346 342 338 339 340 337 335 334 327 323 320 320 318 312 304 295 283 271 270 278 281 279 237 228 229 209 211 219 218
39 40 33 23 18 16 10 2 356 351 349 346 346 345 338 335 332 338 335 332 330 325 330 323 323 324 315 313 308 302 296 288 282 278 284 279 270 225 228 231 218 222 224
37 37 29 13 9 3 357 355 351 347 345 342 341 331 336 334 338 340 338 338 339 334 328 325 325 324 322 319 312 310 305 300 293 283 280 282 276 238 234 219 217 212 214
40 36 20 0 356 358 0 357 348 346 336 335 336 340 339 340 352 349 349 345 336 333 332 332 328 324 323 324 317 313 310 305 297 288 281 279 275 250 225 233 237 219 220
25 20 13 7 1 358 352 349 351 341 341 342 348 343 352 352 351 354 354 340 339 334 332 329 325 319 320 315 312 309 305 302 296 292 285 277 277 266 257 235 223 205 224
29 23 9 3 356 354 350 352 351 351 342 348 349 357 354 348 352 351 349 343 336 332 326 325 325 324 318 318 313 310 307 298 291 289 280 274 278 277 271 242 221 217 222
45 24 13 359 358 353 355 358 344 350 351 351 354 354 342 335 349 352 347 338 329 325 322 320 318 319 319 317 317 309 301 294 288 278 273 276 271 274 267 267 235 227 232
28 13 12 7 357 354 359 349 347 344 356 356 351 339 341 342 348 345 344 335 328 321 319 319 320 314 316 319 313 309 305 298 291 288 282 278 279 273 265 266 245 215 210
12 8 12 6 358 350 339 331 339 357 355 336 344 350 340 334 338 340 344 334 324 323 322 319 315 319 318 317 315 307 300 300 300 293 285 283 274 272 262 258 263 227 217
2 8 5 357 327 334 329 350 353 345 347 352 346 333 330 338 333 338 339 335 326 326 320 319 318 317 317 318 313 306 296 302 302 293 287 283 277 273 243 246 247 233 222
7 358 345 329 335 345 343 349 356 359 351 344 334 331 334 328 330 333 337 333 334 325 318 319 314 321 321 318 317 311 313 309 295 292 287 283 281 272 248 255 249 236 227
352 321 325 338 353 345 353 353 347 356 350 337 335 329 323 327 327 330 324 334 328 321 321 318 323 320 321 320 316 317 318 310 307 300 300 295 291 292 132 80 66 72 53
338 354 347 346 344 349 341 351 348 343 338 332 329 323 325 327 329 319 331 324 321 328 325 319 316 316 314 314 315 317 314 312 309 307 303 304 302 209 145 82 85 119 80
0 3 1 350 338 340 355 339 335 328 323 326 320 323 324 324 319 331 333 329 334 333 332 326 321 323 322 321 320 317 316 314 315 314 308 301 277 251 67 93 119 89 107
20 6 347 329 343 342 332 325 328 322 332 330 330 330 325 320 329 332 330 338 340 336 339 326 324 323 322 320 320 319 322 316 320 318 310 296 267 225 171 119 130 114 133
3 318 336 346 340 338 338 326 319 326 331 334 334 332 328 328 332 328 334 335 343 340 326 320 318 320 320 321 319 322 322 317 319 319 309 294 269 166 147 154 139 132 126
278 283 286 311 326 313 298 297 299 305 314 316 322 321 324 328 325 328 337 341 331 338 321 320 319 320 319 319 321 322 322 319 324 327 317 308 295 184 162 164 156 145 133
246 269 298 305 288 279 293 301 301 303 301 297 304 306 311 317 318 335 334 320 315 317 319 316 317 317 317 318 318 319 321 322 324 328 329 323 325 270 152 152 146 137 131
232 283 289 279 289 306 308 304 303 296 297 297 302 303 310 299 329 327 320 311 308 307 311 312 314 314 315 316 317 319 322 328 332 336 334 330 333 336 115 150 145 146 130
229 259 264 303 312 299 288 294 294 294 292 290 288 293 307 329 312 306 307 305 304 305 306 307 310 312 311 313 315 318 321 323 330 333 334 333 331 339 64 122 129 126 128
214 243 274 282 290 298 286 285 287 287 287 288 293 294 311 307 297 302 303 300 299 295 296 301 304 306 307 309 313 315 317 320 325 331 329 330 330 339 16 102 121 125 126
200 250 294 295 269 285 293 281 277 279 284 287 292 297 302 299 299 299 299 300 299 297 297 296 299 303 304 305 307 305 308 311 313 323 324 325 326 326 337 131 140 137 143
193 255 265 277 286 276 273 283 281 281 283 286 287 288 292 296 297 296 294 297 298 297 297 297 300 300 302 306 306 304 299 300 304 311 320 322 321 325 324 126 150 143 140
205 265 267 276 286 285 288 283 284 282 281 282 287 289 294 296 296 294 293 294 295 298 300 303 302 301 305 306 302 299 297 300 303 302 307 321 326 328 326 204 149 137 136
241 254 253 262 273 269 270 282 287 288 286 289 290 292 294 295 293 295 296 295 296 300 302 299 300 299 304 301 298 299 304 310 304 297 301 327 329 330 336 33 146 147 148